[[{"header":{"parameterUnit":"m.s-1","parameterCategory":1,"la1":30.2991,"la2":30.254,"lo1":-89.0895,"lo2":-89.0444,"dy":0.0017,"dx":0.0017,"nx":28,"ny":28,"refTime":"2024-07-25T03:00:00:Z","depth":0,"parameterNumber":2,"parameterNumberName":"U-component_of_WINDS"},"data":[0,0,0,0,0,0,0,0,0,0,0,0,0,0,0,0,0,0,0,0,0,0,0,0,0,0,0,0,0,0,0,0,0,0,0,0,0,0,0,0,0,0,0,0,0,0,0,0,0,0,0,0,0,0,0,0,0,0,-0.3205,-0.3204,0,-0.3076,-0.3074,-0.3073,-0.301,-0.301,-0.301,-0.301,-0.2875,-0.2871,-0.2867,0,0,0,0,0,0,0,0,0,0,0,0,0,-0.3396,-0.3393,-0.3205,-0.3204,-0.3202,-0.3076,-0.3074,-0.3073,-0.301,-0.301,-0.301,-0.301,-0.2876,-0.2871,-0.2867,0,0,0,0,0,0,0,0,0,0,0,0,0,-0.3294,-0.3392,-0.3206,-0.3156,-0.315,-0.3076,-0.3074,-0.3072,-0.301,-0.301,-0.301,-0.301,-0.2877,-0.2872,-0.2866,-0.2832,0,0,-0.285,-0.2848,0,0,0,0,0,0,0,0,-0.33,-0.3287,-0.3165,-0.3159,-0.3152,-0.3059,-0.3092,-0.2992,-0.301,-0.3063,-0.301,-0.301,-0.2936,-0.2925,-0.2901,-0.2826,-0.282,-0.2849,-0.2846,-0.2844,-0.2842,0,0,0,0,0,0,0,-0.3307,-0.3293,-0.3154,-0.3163,-0.3155,-0.3139,-0.3124,-0.3073,-0.3001,-0.3058,-0.3053,-0.3039,-0.2932,-0.2906,-0.2897,-0.2818,-0.285,-0.2845,-0.2841,-0.2839,-0.2708,-0.2708,0,0,0,0,0,0,-0.3323,-0.3299,-0.3158,-0.315,-0.3228,-0.3135,-0.3119,-0.3089,-0.3001,-0.2988,-0.3039,-0.3036,-0.2916,-0.2904,-0.2892,-0.2846,-0.2844,-0.2839,-0.2836,-0.2708,-0.2708,-0.2708,0,0,0,0,0,0,-0.3327,-0.3311,-0.3163,-0.3223,-0.3203,-0.3132,-0.3098,-0.3086,-0.306,-0.2987,-0.2973,-0.3026,-0.2915,-0.29,-0.2848,-0.284,-0.2836,-0.2831,-0.2708,-0.2708,-0.2708,-0.2754,0,0,0,0,0,0,-0.3333,-0.3313,-0.33,-0.3223,-0.32,-0.3122,-0.3098,-0.3084,-0.3051,-0.3047,-0.2971,-0.2958,-0.2914,-0.2856,-0.2842,-0.2833,-0.2827,-0.2709,-0.2708,-0.2708,-0.2753,-0.2755,-0.2757,0,0,0,0,0,-0.334,-0.3317,-0.3299,-0.3283,-0.3183,-0.3122,-0.3108,-0.3059,-0.3051,-0.3037,-0.2989,-0.296,-0.2844,-0.2851,-0.2835,-0.2824,-0.2709,-0.2708,-0.2708,-0.2751,-0.2755,-0.2757,0,0,0,0,0,0,-0.3394,-0.3307,-0.3286,-0.3238,-0.3188,-0.3111,-0.3092,-0.3064,-0.3014,-0.3012,-0.2952,-0.2935,-0.2888,-0.2851,-0.2861,-0.2786,-0.2773,-0.277,-0.2812,-0.2814,-0.2817,-0.2826,-0.2823,0,0,0,0,0,-0.3401,-0.3359,-0.3285,-0.325,-0.3226,-0.3163,-0.3135,-0.3101,-0.3047,-0.3025,-0.2973,-0.2921,-0.2872,-0.2841,-0.2792,-0.2747,-0.2729,-0.2731,-0.2734,-0.2736,-0.2733,-0.2706,-0.2706,-0.2706,-0.2706,-0.2706,0,0,-0.3413,-0.336,-0.3338,-0.3259,-0.3216,-0.3174,-0.3146,-0.3102,-0.307,-0.3018,-0.2965,-0.2926,-0.2863,-0.2814,-0.279,-0.2782,-0.2729,-0.2735,-0.2738,-0.2733,-0.2705,-0.2705,-0.2705,-0.2705,-0.2705,-0.2706,0,0,-0.3415,-0.3371,-0.3337,-0.3295,-0.3231,-0.3189,-0.3181,-0.3109,-0.3081,-0.3027,-0.2987,-0.2947,-0.2865,-0.2822,-0.2789,-0.2774,-0.2746,-0.276,-0.2772,-0.2746,-0.2746,-0.2746,-0.274,-0.2738,-0.2758,-0.2758,-0.2758,0,-0.3439,-0.3374,-0.3323,-0.3282,-0.3248,-0.32,-0.3164,-0.3125,-0.3048,-0.3026,-0.3018,-0.2913,-0.2867,-0.2807,-0.2804,-0.2779,-0.2767,-0.2768,-0.275,-0.2749,-0.2748,-0.2742,-0.274,-0.276,-0.276,-0.276,-0.2759,0,-0.3406,-0.3362,-0.3342,-0.327,-0.3234,-0.3196,-0.3138,-0.3107,-0.3077,-0.3036,-0.2982,-0.2926,-0.2864,-0.2848,-0.2817,-0.2783,-0.278,-0.2762,-0.2748,-0.2751,-0.2744,-0.2742,-0.2763,-0.2762,-0.2762,-0.2761,0,0,-0.3438,-0.3338,-0.3331,-0.3298,-0.3223,-0.3188,-0.3147,-0.3088,-0.3063,-0.3011,-0.2975,-0.2907,-0.289,-0.2853,-0.2817,-0.2794,-0.2785,-0.2778,-0.2776,-0.2781,-0.2743,-0.2757,-0.2755,-0.2766,-0.2765,-0.2765,-0.2748,0,-0.3429,-0.3355,-0.3307,-0.3252,-0.321,-0.3163,-0.3128,-0.3078,-0.3039,-0.2997,-0.2953,-0.2905,-0.2887,-0.2864,-0.2839,-0.2792,-0.2777,-0.2792,-0.2731,-0.2729,-0.2748,-0.2752,-0.2766,-0.2753,-0.2745,-0.2745,-0.2745,0,-0.3408,-0.3359,-0.3299,-0.3229,-0.321,-0.3179,-0.3121,-0.3082,-0.3024,-0.2997,-0.2956,-0.2919,-0.2874,-0.2864,-0.28,-0.2811,-0.2783,-0.2756,-0.2754,-0.2746,-0.2737,-0.2743,-0.2748,-0.2746,-0.274,-0.274,-0.2741,0,-0.3437,-0.3355,-0.3309,-0.3282,-0.3199,-0.3178,-0.3143,-0.3085,-0.3052,-0.3001,-0.2979,-0.2923,-0.2892,-0.2849,-0.2799,-0.2797,-0.2739,-0.2725,-0.2715,-0.2716,-0.2704,-0.2706,-0.2704,-0.2687,-0.2687,-0.2688,-0.2688,0,-0.3431,-0.3397,-0.3321,-0.3292,-0.3252,-0.3197,-0.3158,-0.3119,-0.3068,-0.303,-0.2986,-0.2952,-0.2887,-0.2844,-0.2804,-0.2757,-0.2743,-0.2719,-0.2709,-0.2723,-0.2726,-0.2703,-0.2703,-0.2687,-0.2687,-0.2687,-0.2687,0,-0.3456,-0.3404,-0.3351,-0.3277,-0.3258,-0.3231,-0.3167,-0.3137,-0.3096,-0.3049,-0.3035,-0.2969,-0.2917,-0.2862,-0.279,-0.2763,-0.2717,-0.2703,-0.2737,-0.2731,-0.2723,-0.2724,-0.2707,-0.2701,-0.2689,-0.2689,-0.269,0,-0.3456,-0.3429,-0.3352,-0.3324,-0.329,-0.3245,-0.3212,-0.3157,-0.3124,-0.3056,-0.3034,-0.2978,-0.2931,-0.2848,-0.2794,-0.2739,-0.2723,-0.272,-0.2714,-0.2729,-0.2722,-0.2724,-0.272,-0.2722,-0.2723,-0.2723,-0.2723,0,-0.3461,-0.3437,-0.3391,-0.3336,-0.3297,-0.3251,-0.3203,-0.3182,-0.3118,-0.3083,-0.3029,-0.2992,-0.2919,-0.2864,-0.2802,-0.2764,-0.2733,-0.2726,-0.272,-0.2734,-0.2755,-0.2743,-0.2742,-0.2726,-0.2726,-0.2726,-0.2726,-0.2726,-0.3473,-0.3446,-0.3388,-0.3338,-0.3297,-0.3253,-0.3221,-0.3176,-0.313,-0.3067,-0.3037,-0.2983,-0.2925,-0.2839,-0.2802,-0.2758,-0.2749,-0.2741,-0.2739,-0.2738,-0.2741,-0.2763,-0.2747,-0.2746,-0.2746,-0.2746,-0.2746,0,-0.3475,-0.3436,-0.3391,-0.3325,-0.3286,-0.326,-0.3206,-0.3174,-0.3127,-0.3076,-0.3031,-0.2968,-0.2915,-0.2856,-0.2799,-0.2775,-0.2759,-0.2761,-0.2762,-0.2754,-0.2753,-0.2763,-0.2775,-0.2775,-0.2775,-0.2775,-0.2775,-0.2775,-0.3472,-0.3425,-0.3394,-0.3325,-0.3285,-0.3233,-0.3204,-0.3163,-0.3122,-0.3054,-0.301,-0.2972,-0.2918,-0.2856,-0.2805,-0.2789,-0.277,-0.2776,-0.2756,-0.2756,-0.2754,-0.2752,-0.2761,-0.2773,-0.2773,-0.2761,-0.2761,-0.2761]},{"header":{"parameterUnit":"m.s-1","parameterCategory":1,"la1":30.2991,"la2":30.254,"lo1":-89.0895,"lo2":-89.0444,"dy":0.0017,"dx":0.0017,"nx":28,"ny":28,"refTime":"2024-07-25T03:00:00:Z","depth":0,"parameterNumber":3,"parameterNumberName":"V-component_of_WINDS"},"data":[0,0,0,0,0,0,0,0,0,0,0,0,0,0,0,0,0,0,0,0,0,0,0,0,0,0,0,0,0,0,0,0,0,0,0,0,0,0,0,0,0,0,0,0,0,0,0,0,0,0,0,0,0,0,0,0,0,0,2.1301,2.13,0,2.129,2.129,2.1289,2.124,2.1239,2.1238,2.1237,2.1227,2.1227,2.1228,0,0,0,0,0,0,0,0,0,0,0,0,0,2.1279,2.128,2.1301,2.13,2.13,2.129,2.129,2.1289,2.1241,2.1239,2.1238,2.1237,2.1226,2.1227,2.1228,0,0,0,0,0,0,0,0,0,0,0,0,0,2.128,2.128,2.1301,2.1275,2.1272,2.129,2.129,2.1289,2.1241,2.1239,2.1237,2.1236,2.1226,2.1227,2.1228,2.127,0,0,2.1232,2.1232,0,0,0,0,0,0,0,0,2.128,2.1281,2.1279,2.1276,2.1274,2.1265,2.1278,2.1283,2.1241,2.1253,2.1237,2.1235,2.1241,2.1241,2.1242,2.127,2.1269,2.1232,2.1233,2.1233,2.1234,0,0,0,0,0,0,0,2.128,2.1281,2.1296,2.1279,2.1276,2.1263,2.1262,2.1279,2.1257,2.1252,2.1248,2.1247,2.1239,2.1241,2.1242,2.1269,2.1232,2.1233,2.1234,2.1234,2.1329,2.1331,0,0,0,0,0,0,2.1284,2.1282,2.1297,2.1296,2.1273,2.1265,2.1263,2.1269,2.1256,2.1253,2.1249,2.1245,2.124,2.124,2.1241,2.1289,2.1233,2.1234,2.1235,2.1327,2.133,2.1332,0,0,0,0,0,0,2.1284,2.1286,2.1297,2.1288,2.1288,2.1268,2.1275,2.127,2.1272,2.1254,2.125,2.1255,2.1239,2.1239,2.1263,2.1288,2.1235,2.1236,2.1325,2.1328,2.1331,2.1384,0,0,0,0,0,0,2.1283,2.1286,2.1302,2.1288,2.1289,2.1319,2.1276,2.1271,2.1274,2.1269,2.1259,2.1256,2.1237,2.1262,2.1264,2.1288,2.1237,2.1323,2.1327,2.133,2.138,2.1389,2.1396,0,0,0,0,0,2.1283,2.1318,2.1303,2.1305,2.1308,2.1321,2.1321,2.1299,2.1277,2.1292,2.128,2.1256,2.1285,2.1264,2.1267,2.1292,2.1321,2.1326,2.1329,2.1377,2.1387,2.1396,0,0,0,0,0,0,2.1335,2.1315,2.1299,2.1331,2.1328,2.1313,2.1332,2.1311,2.1315,2.131,2.1283,2.1281,2.1308,2.1302,2.128,2.1331,2.1299,2.1304,2.1334,2.1343,2.1351,2.1352,2.1238,0,0,0,0,0,2.135,2.1362,2.1344,2.1374,2.1373,2.1353,2.1358,2.1341,2.1337,2.1335,2.1325,2.1323,2.1331,2.1337,2.1343,2.1379,2.1376,2.1398,2.1405,2.1412,2.1416,2.1434,2.1443,2.1345,2.1345,2.1345,0,0,2.1382,2.1372,2.1382,2.1384,2.138,2.1393,2.1352,2.1368,2.1377,2.1338,2.1359,2.1352,2.1347,2.1377,2.1389,2.1373,2.1442,2.1417,2.1422,2.1423,2.1439,2.1448,2.1457,2.1348,2.1347,2.1347,0,0,2.1445,2.144,2.1464,2.146,2.1454,2.144,2.1446,2.1433,2.1427,2.1448,2.1419,2.1429,2.1444,2.1441,2.1442,2.1504,2.1481,2.1507,2.1547,2.1565,2.1572,2.1579,2.1601,2.1609,2.1511,2.1511,2.1511,0,2.1486,2.1503,2.1479,2.1496,2.1497,2.1462,2.1486,2.1484,2.148,2.1482,2.1464,2.1481,2.1475,2.1503,2.1518,2.152,2.1525,2.1508,2.1573,2.158,2.1586,2.1606,2.1614,2.1514,2.1514,2.1514,2.1513,0,2.1553,2.1565,2.1585,2.1582,2.1586,2.1606,2.1585,2.1592,2.1574,2.1562,2.1584,2.1575,2.1579,2.1585,2.1568,2.1611,2.16,2.1578,2.1545,2.1598,2.1617,2.1625,2.1519,2.1518,2.1517,2.1516,0,0,2.165,2.1632,2.164,2.1637,2.1628,2.1637,2.1655,2.1659,2.1665,2.1664,2.1678,2.1691,2.167,2.1671,2.1653,2.1669,2.1718,2.1644,2.1644,2.1658,2.1763,2.178,2.1789,2.1703,2.1704,2.1705,2.1763,0,2.171,2.1741,2.1718,2.1753,2.1763,2.173,2.1746,2.1741,2.1731,2.1738,2.1726,2.1735,2.1707,2.1707,2.1721,2.1709,2.1739,2.1704,2.1716,2.1717,2.1718,2.1799,2.1817,2.1872,2.1771,2.1772,2.1773,0,2.1785,2.1787,2.1822,2.1808,2.1812,2.1827,2.1828,2.1836,2.183,2.1821,2.1821,2.1799,2.1816,2.1784,2.1807,2.1784,2.1787,2.1782,2.1784,2.1784,2.1748,2.1801,2.189,2.1898,2.1784,2.1783,2.1782,0,2.1852,2.1863,2.1884,2.1884,2.1869,2.188,2.1875,2.1867,2.187,2.1871,2.1872,2.1875,2.1877,2.188,2.186,2.1838,2.1885,2.1851,2.1877,2.1878,2.1889,2.1889,2.1979,2.1892,2.1892,2.1891,2.1891,0,2.1922,2.1945,2.1914,2.1928,2.1952,2.1926,2.1951,2.1941,2.1935,2.1946,2.1917,2.1928,2.1901,2.1909,2.1893,2.1914,2.1915,2.1908,2.1904,2.1911,2.1912,2.1913,2.1908,2.1894,2.1893,2.1893,2.1892,0,2.2001,2.1981,2.2003,2.1987,2.1983,2.2002,2.1988,2.2,2.1987,2.2001,2.2003,2.1982,2.199,2.197,2.1976,2.1965,2.1995,2.1984,2.1997,2.1994,2.2021,2.2019,2.2115,2.2126,2.2032,2.2033,2.2034,0,2.2047,2.2063,2.2049,2.2054,2.2049,2.2058,2.2061,2.2036,2.204,2.2034,2.2047,2.2052,2.2055,2.207,2.2055,2.2059,2.2048,2.2081,2.2048,2.2055,2.2048,2.2047,2.2049,2.2088,2.209,2.209,2.2091,0,2.213,2.2119,2.2124,2.2125,2.2129,2.2129,2.2127,2.2133,2.2106,2.2112,2.212,2.2122,2.2127,2.2133,2.2133,2.2127,2.2105,2.2102,2.2108,2.2115,2.2122,2.2118,2.2015,2.21,2.2099,2.2098,2.2098,2.2097,2.2193,2.2206,2.2197,2.2204,2.2199,2.2198,2.2208,2.2195,2.2201,2.2203,2.2188,2.2198,2.2191,2.2189,2.2186,2.2194,2.2178,2.2188,2.219,2.2193,2.2197,2.212,2.2194,2.2193,2.2193,2.2193,2.2193,0,2.2275,2.2267,2.2273,2.2271,2.2275,2.2253,2.225,2.2255,2.2265,2.226,2.2263,2.2271,2.2277,2.2262,2.2265,2.2274,2.2264,2.2276,2.2275,2.2274,2.2211,2.2205,2.2284,2.2284,2.2284,2.2284,2.2284,2.2284,2.2318,2.2338,2.2326,2.2343,2.2335,2.2345,2.2345,2.2343,2.2339,2.2349,2.2353,2.2344,2.2335,2.2337,2.2341,2.2336,2.2339,2.2354,2.2346,2.2287,2.2279,2.227,2.2264,2.2355,2.2355,2.2409,2.2409,2.241]}]]